IW1RCO-13 Weather Reports


Display with metric or nautical units.
time (UTC)temp
F
wind
direction
speed
MPH
gust
MPH
rain 1hr
in
rain 24hr
in
rain mn
in
humidity
%
barometer
mb
20260507115902 65 0.0 0.0 0.00 0.00 0.00 65 1012.3
20260507115405 63 0.0 0.0 0.00 0.00 0.00 69 1012.2
20260507114902 60 0.0 0.0 0.00 0.00 0.00 73 1012.0
20260507114405 59 0.0 0.0 0.00 0.00 0.00 76 1012.4
20260507113901 60 0.0 0.0 0.00 0.00 0.00 74 1012.0
20260507113405 60 0.0 0.0 0.00 0.00 0.00 76 1012.3
20260507112901 59 0.0 0.0 0.00 0.00 0.00 74 1012.4
20260507112404 61 0.0 0.0 0.00 0.00 0.00 71 1012.2
20260507111901 62 0.0 0.0 0.00 0.00 0.00 70 1012.2
20260507111404 62 0.0 0.0 0.00 0.00 0.00 66 1011.9
20260507110901 63 0.0 0.0 0.00 0.00 0.00 65 1012.0
20260507110404 62 0.0 0.0 0.00 0.00 0.00 69 1012.3
20260507105901 62 0.0 0.0 0.00 0.00 0.00 71 1012.1
20260507105404 60 0.0 0.0 0.00 0.00 0.00 71 1012.5
20260507104900 62 0.0 0.0 0.00 0.00 0.00 68 1012.3
20260507104404 62 0.0 0.0 0.00 0.00 0.00 68 1012.2
20260507103900 63 0.0 0.0 0.00 0.00 0.00 76 1012.1
20260507100403 59 0.0 0.0 0.00 0.00 0.00 75 1011.9
20260507095859 61 0.0 0.0 0.00 0.00 0.00 71 1012.0
20260507095403 60 0.0 0.0 0.00 0.00 0.00 71 1012.8
20260507094859 60 0.0 0.0 0.00 0.00 0.00 75 1011.9
20260507094403 58 0.0 0.0 0.00 0.00 0.00 77 1012.0
20260507093859 57 0.0 0.0 0.00 0.00 0.00 78 1012.3
20260507093402 58 0.0 0.0 0.00 0.00 0.00 80 1012.6
20260507092906 56 0.0 0.0 0.00 0.00 0.00 81 1012.6
20260507092402 57 0.0 0.0 0.00 0.00 0.00 79 1012.1
20260507091905 58 0.0 0.0 0.00 0.00 0.00 74 1012.2
20260507091402 58 0.0 0.0 0.00 0.00 0.00 76 1012.6
20260507090905 58 0.0 0.0 0.00 0.00 0.00 77 1012.3
20260507090402 59 0.0 0.0 0.00 0.00 0.00 77 1012.2
20260507085905 59 0.0 0.0 0.00 0.00 0.00 76 1012.3
20260507085401 59 0.0 0.0 0.00 0.00 0.00 76 1012.5
20260507084905 59 0.0 0.0 0.00 0.00 0.00 79 1012.5
20260507084401 58 0.0 0.0 0.00 0.00 0.00 78 1012.3
20260507083904 57 0.0 0.0 0.00 0.00 0.00 77 1012.1
20260507083401 56 0.0 0.0 0.00 0.00 0.00 79 1011.9
20260507082904 55 0.0 0.0 0.00 0.00 0.00 82 1012.1
20260507082401 55 0.0 0.0 0.00 0.00 0.00 80 1012.0
20260507081904 56 0.0 0.0 0.00 0.00 0.00 80 1012.3
20260507081400 56 0.0 0.0 0.00 0.00 0.00 80 1012.3
20260507080904 56 0.0 0.0 0.00 0.00 0.00 81 1012.0
20260507080400 56 0.0 0.0 0.00 0.00 0.00 79 1011.8
20260507075904 55 0.0 0.0 0.00 0.00 0.00 78 1011.7
20260507075400 55 0.0 0.0 0.00 0.00 0.00 85 1012.0
20260507074903 54 0.0 0.0 0.00 0.00 0.00 85 1012.0
20260507074400 54 0.0 0.0 0.00 0.00 0.00 85 1012.3
20260507073903 54 0.0 0.0 0.00 0.00 0.00 86 1012.2
20260507073400 55 0.0 0.0 0.00 0.00 0.00 82 1011.7
20260507072903 55 0.0 0.0 0.00 0.00 0.00 82 1012.0
20260507072359 54 0.0 0.0 0.00 0.00 0.00 86 1012.0
20260507071903 53 0.0 0.0 0.00 0.00 0.00 87 1012.0
20260507071359 54 0.0 0.0 0.00 0.00 0.00 85 1012.1
20260507070903 54 0.0 0.0 0.00 0.00 0.00 84 1011.4
20260507070359 54 0.0 0.0 0.00 0.00 0.00 83 1012.0
20260507065902 53 0.0 0.0 0.00 0.00 0.00 84 1011.6
20260507065406 54 0.0 0.0 0.00 0.00 0.00 82 1012.0
20260507064902 54 0.0 0.0 0.00 0.00 0.00 84 1011.7
20260507064405 54 0.0 0.0 0.00 0.00 0.00 83 1012.0
20260507063902 54 0.0 0.0 0.00 0.00 0.00 84 1011.6
20260507060404 52 0.0 0.0 0.00 0.00 0.00 87 1011.3
20260507055901 51 0.0 0.0 0.00 0.00 0.00 87 1011.2
20260507055404 51 0.0 0.0 0.00 0.00 0.00 89 1011.3
20260507054901 51 0.0 0.0 0.00 0.00 0.00 89 1011.4
20260507054404 50 0.0 0.0 0.00 0.00 0.00 89 1011.1
20260507053900 50 0.0 0.0 0.00 0.00 0.00 89 1010.3
20260507053404 50 0.0 0.0 0.00 0.00 0.00 89 1010.3
20260507052900 50 0.0 0.0 0.00 0.00 0.00 90 1011.3
20260507052403 50 0.0 0.0 0.00 0.00 0.00 90 1011.3
20260507051900 50 0.0 0.0 0.00 0.00 0.00 90 1010.3
20260507051403 50 0.0 0.0 0.00 0.00 0.00 90 1011.0
20260507050900 50 0.0 0.0 0.00 0.00 0.00 89 1010.7
20260507050403 50 0.0 0.0 0.00 0.00 0.00 89 1010.4
20260507045859 49 0.0 0.0 0.00 0.00 0.00 89 1010.7
20260507045403 49 0.0 0.0 0.00 0.00 0.00 89 1010.1
20260507044859 49 0.0 0.0 0.00 0.00 0.00 89 1010.5
20260507044403 49 0.0 0.0 0.00 0.00 0.00 90 1009.6
20260507043859 49 0.0 0.0 0.00 0.00 0.00 90 1010.7
20260507043402 48 0.0 0.0 0.00 0.00 0.00 92 1010.4
20260507042402 48 0.0 0.0 0.00 0.00 0.00 93 1010.2
20260507041859 48 0.0 0.0 0.00 0.00 0.00 92 1010.5
20260507041402 48 0.0 0.0 0.00 0.00 0.00 92 1011.1
20260507040905 48 0.0 0.0 0.00 0.00 0.00 93 1011.1
20260507040402 47 0.0 0.0 0.00 0.00 0.00 94 1011.0
20260507035905 47 0.0 0.0 0.00 0.00 0.00 94 1011.1
20260507035402 47 0.0 0.0 0.00 0.00 0.00 94 1010.5
20260507034905 47 0.0 0.0 0.00 0.00 0.00 94 1010.9
20260507034401 47 0.0 0.0 0.00 0.00 0.00 94 1010.8
20260507033905 47 0.0 0.0 0.00 0.00 0.00 95 1010.7
20260507033401 47 0.0 0.0 0.00 0.00 0.00 95 1011.3
20260507032905 47 0.0 0.0 0.00 0.00 0.00 94 1010.9
20260507032401 47 0.0 0.0 0.00 0.00 0.00 94 1010.7
20260507031904 47 0.0 0.0 0.00 0.00 0.00 94 1010.5
20260507031401 47 0.0 0.0 0.00 0.00 0.00 94 1011.1
20260507030904 47 0.0 0.0 0.00 0.00 0.00 94 1010.5
20260507030401 47 0.0 0.0 0.00 0.00 0.00 94 1011.7
20260507025904 48 0.0 0.0 0.00 0.00 0.00 93 1010.7
20260507025400 47 0.0 0.0 0.00 0.00 0.00 94 1011.0
20260507024904 48 0.0 0.0 0.00 0.00 0.00 93 1010.1
20260507024400 48 0.0 0.0 0.00 0.00 0.00 92 1011.1
20260507020400 48 0.0 0.0 0.00 0.00 0.00 95 1010.7
20260507015903 48 0.0 0.0 0.00 0.00 0.00 95 1011.3
20260507015400 48 0.0 0.0 0.00 0.00 0.00 95 1011.1
20260507014903 48 0.0 0.0 0.00 0.00 0.00 95 1010.4
20260507014400 49 0.0 0.0 0.00 0.00 0.00 94 1010.7
20260507013359 49 0.0 0.0 0.00 0.00 0.00 94 1011.1
20260507012902 50 0.0 0.0 0.00 0.00 0.00 92 1010.8
20260507012359 50 0.0 0.0 0.00 0.00 0.00 92 1010.8
20260507011902 50 0.0 0.0 0.00 0.00 0.00 92 1011.2
20260507011405 50 0.0 0.0 0.00 0.00 0.00 93 1011.6
20260507010902 50 0.0 0.0 0.00 0.00 0.00 93 1011.0
20260507010405 50 0.0 0.0 0.00 0.00 0.00 93 1010.8
20260507005902 50 0.0 0.0 0.00 0.00 0.00 94 1010.8
20260507005405 50 0.0 0.0 0.00 0.00 0.00 94 1010.4
20260507004901 50 0.0 0.0 0.00 0.00 0.00 94 1011.6
20260507004405 50 0.0 0.0 0.00 0.00 0.00 93 1010.7
20260507003901 49 0.0 0.0 0.00 0.00 0.00 93 1010.2
20260507003405 49 0.0 0.0 0.00 0.00 0.00 94 1010.6
20260507002901 50 0.0 0.0 0.00 0.00 0.00 94 1010.9
20260507002404 50 0.0 0.0 0.00 0.00 0.00 94 1010.7
20260507001901 50 0.0 0.0 0.00 0.00 0.00 94 1010.5
20260507001404 50 0.0 0.0 0.00 0.00 0.00 93 1011.2
20260507000901 50 0.0 0.0 0.00 0.00 0.00 93 1011.0
20260507000405 50 0.0 0.0 0.00 0.00 0.00 93 1010.4
20260506235901 50 0.0 0.0 0.00 0.00 0.00 94 1011.7
20260506235404 50 0.0 0.0 0.00 0.00 0.00 93 1010.7
20260506234900 50 0.0 0.0 0.00 0.00 0.00 94 1011.3
20260506234404 50 0.0 0.0 0.00 0.00 0.00 94 1010.8
20260506233900 50 0.0 0.0 0.00 0.00 0.00 93 1011.0
20260506233404 50 0.0 0.0 0.00 0.00 0.00 92 1010.9
20260506232900 50 0.0 0.0 0.00 0.00 0.00 91 1011.3
20260506232403 50 0.0 0.0 0.00 0.00 0.00 93 1011.4
20260506231900 50 0.0 0.0 0.00 0.00 0.00 93 1011.0
20260506231403 50 0.0 0.0 0.00 0.00 0.00 93 1011.6
20260506230859 50 0.0 0.0 0.00 0.00 0.00 93 1010.8
20260506230403 50 0.0 0.0 0.00 0.00 0.00 95 1010.7
20260506225859 49 0.0 0.0 0.00 0.00 0.00 95 1010.7
20260506225402 49 0.0 0.0 0.00 0.00 0.00 95 1011.2
20260506224859 50 0.0 0.0 0.00 0.00 0.00 95 1011.0
20260506224402 50 0.0 0.0 0.00 0.00 0.00 95 1011.1
20260506215901 51 0.0 0.0 0.00 0.00 0.00 93 1010.7
20260506215404 50 0.0 0.0 0.00 0.00 0.00 93 1012.0
20260506214901 50 0.0 0.0 0.00 0.00 0.00 94 1011.1
20260506214404 50 0.0 0.0 0.00 0.00 0.00 94 1010.7
20260506213901 50 0.0 0.0 0.00 0.00 0.00 94 1012.0
20260506213404 50 0.0 0.0 0.00 0.00 0.00 94 1011.8
20260506212901 49 0.0 0.0 0.00 0.00 0.00 95 1010.9
20260506212404 48 0.0 0.0 0.00 0.00 0.00 94 1011.5
20260506211900 48 0.0 0.0 0.00 0.00 0.00 96 1011.3
20260506211404 47 0.0 0.0 0.00 0.00 0.00 94 1011.5
20260506210900 48 0.0 0.0 0.00 0.00 0.00 95 1011.6
20260506210404 47 0.0 0.0 0.00 0.00 0.00 94 1011.5
20260506205900 47 0.0 0.0 0.00 0.00 0.00 95 1011.0
20260506205404 47 0.0 0.0 0.00 0.00 0.00 95 1010.4
20260506204900 47 0.0 0.0 0.00 0.00 0.00 94 1010.8
20260506204403 47 0.0 0.0 0.00 0.00 0.00 94 1010.9
20260506203900 47 0.0 0.0 0.00 0.00 0.00 94 1011.0
20260506203403 48 0.0 0.0 0.00 0.00 0.00 94 1010.4
20260506202859 48 0.0 0.0 0.00 0.00 0.00 94 1010.9
20260506201859 49 0.0 0.0 0.00 0.00 0.00 92 1011.2
20260506201402 49 0.0 0.0 0.00 0.00 0.00 92 1010.7
20260506200859 50 0.0 0.0 0.00 0.00 0.00 92 1010.7
20260506200402 50 0.0 0.0 0.00 0.00 0.00 91 1010.9
20260506195859 50 0.0 0.0 0.00 0.00 0.00 91 1010.9
20260506195402 50 0.0 0.0 0.00 0.00 0.00 93 1011.4
20260506194905 50 0.0 0.0 0.00 0.00 0.00 92 1010.6
20260506194402 51 0.0 0.0 0.00 0.00 0.00 92 1010.8
20260506193907 51 0.0 0.0 0.00 0.00 0.00 90 1010.8
20260506193402 51 0.0 0.0 0.00 0.00 0.00 92 1010.7
20260506192905 51 0.0 0.0 0.00 0.00 0.00 91 1010.5
20260506192402 51 0.0 0.0 0.00 0.00 0.00 92 1010.4
20260506191905 51 0.0 0.0 0.00 0.00 0.00 92 1009.8
20260506191401 51 0.0 0.0 0.00 0.00 0.00 92 1010.1
20260506190905 51 0.0 0.0 0.00 0.00 0.00 90 1010.2
20260506190401 52 0.0 0.0 0.00 0.00 0.00 91 1010.5
20260506185904 52 0.0 0.0 0.00 0.00 0.00 91 1010.1
20260506185401 52 0.0 0.0 0.00 0.00 0.00 91 1009.9
20260506184904 51 0.0 0.0 0.00 0.00 0.00 91 1010.7
20260506184401 51 0.0 0.0 0.00 0.00 0.00 91 1010.7
20260506183904 51 0.0 0.0 0.00 0.00 0.00 92 1010.0
20260506180400 52 0.0 0.0 0.00 0.00 0.00 93 1008.4
20260506175903 53 0.0 0.0 0.00 0.00 0.00 92 1009.3
20260506175400 53 0.0 0.0 0.00 0.00 0.00 91 1008.3
20260506174903 53 0.0 0.0 0.00 0.00 0.00 88 1008.4
20260506174400 52 0.0 0.0 0.00 0.00 0.00 89 1008.9
20260506173903 53 0.0 0.0 0.00 0.00 0.00 89 1008.8
20260506173359 53 0.0 0.0 0.00 0.00 0.00 89 1008.6
20260506172902 53 0.0 0.0 0.00 0.00 0.00 89 1008.1
20260506172359 53 0.0 0.0 0.00 0.00 0.00 88 1009.0
20260506171902 53 0.0 0.0 0.00 0.00 0.00 87 1007.9
20260506171406 53 0.0 0.0 0.00 0.00 0.00 88 1008.2
20260506170902 53 0.0 0.0 0.00 0.00 0.00 87 1008.4
20260506170405 54 0.0 0.0 0.00 0.00 0.00 88 1008.1
20260506165902 54 0.0 0.0 0.00 0.00 0.00 86 1008.4
20260506165405 54 0.0 0.0 0.00 0.00 0.00 87 1007.7
20260506164902 54 0.0 0.0 0.00 0.00 0.00 86 1008.2
20260506164405 53 0.0 0.0 0.00 0.00 0.00 87 1007.8
20260506163902 54 0.0 0.0 0.00 0.00 0.00 90 1007.8
20260506163405 54 0.0 0.0 0.00 0.00 0.00 89 1008.3
20260506162901 55 0.0 0.0 0.00 0.00 0.00 87 1008.5
20260506162405 55 0.0 0.0 0.00 0.00 0.00 86 1008.3
20260506161901 57 0.0 0.0 0.00 0.00 0.00 82 1007.9
20260506161404 56 0.0 0.0 0.00 0.00 0.00 85 1008.6
20260506160901 54 0.0 0.0 0.00 0.00 0.00 88 1008.1
20260506160404 54 0.0 0.0 0.00 0.00 0.00 87 1007.7
20260506155901 55 0.0 0.0 0.00 0.00 0.00 83 1007.8
20260506155404 55 0.0 0.0 0.00 0.00 0.00 85 1008.1
20260506154900 55 0.0 0.0 0.00 0.00 0.00 87 1007.9
20260506154404 55 0.0 0.0 0.00 0.00 0.00 87 1007.8
20260506153900 55 0.0 0.0 0.00 0.00 0.00 86 1007.7
20260506153404 56 0.0 0.0 0.00 0.00 0.00 83 1008.3
20260506152900 57 0.0 0.0 0.00 0.00 0.00 80 1007.9
20260506152403 60 0.0 0.0 0.00 0.00 0.00 78 1007.8
20260506151900 58 0.0 0.0 0.00 0.00 0.00 78 1007.5
20260506151403 57 0.0 0.0 0.00 0.00 0.00 82 1008.1
20260506150900 57 0.0 0.0 0.00 0.00 0.00 82 1008.1
20260506150403 57 0.0 0.0 0.00 0.00 0.00 81 1008.1
20260506145859 57 0.0 0.0 0.00 0.00 0.00 81 1007.8
20260506145403 58 0.0 0.0 0.00 0.00 0.00 77 1007.9
20260506144859 57 0.0 0.0 0.00 0.00 0.00 81 1008.1
20260506144402 57 0.0 0.0 0.00 0.00 0.00 82 1008.2
20260506140401 60 0.0 0.0 0.00 0.00 0.00 80 1007.8
20260506135904 60 0.0 0.0 0.00 0.00 0.00 81 1007.9
20260506135401 62 0.0 0.0 0.00 0.00 0.00 77 1007.7
20260506134904 61 0.0 0.0 0.00 0.00 0.00 81 1007.9
20260506134401 61 0.0 0.0 0.00 0.00 0.00 82 1008.6
20260506133904 59 0.0 0.0 0.00 0.00 0.00 86 1008.1
20260506133401 57 0.0 0.0 0.00 0.00 0.00 88 1008.3
20260506132904 58 0.0 0.0 0.00 0.00 0.00 86 1008.1
20260506132400 59 0.0 0.0 0.00 0.00 0.00 83 1007.7
20260506131904 57 0.0 0.0 0.00 0.00 0.00 88 1008.1
20260506131401 56 0.0 0.0 0.00 0.00 0.00 90 1008.5
20260506130903 56 0.0 0.0 0.00 0.00 0.00 90 1008.2
20260506130400 57 0.0 0.0 0.00 0.00 0.00 89 1007.7
20260506125903 56 0.0 0.0 0.00 0.00 0.00 89 1008.3
20260506125400 56 0.0 0.0 0.00 0.00 0.00 88 1008.7
20260506124903 56 0.0 0.0 0.00 0.00 0.00 84 1008.3
20260506124359 57 0.0 0.0 0.00 0.00 0.00 87 1007.9
20260506123903 59 0.0 0.0 0.00 0.00 0.00 85 1007.9
20260506123359 57 0.0 0.0 0.00 0.00 0.00 87 1008.6
20260506122902 58 0.0 0.0 0.00 0.00 0.00 87 1008.1
20260506122359 59 0.0 0.0 0.00 0.00 0.00 87 1008.2
20260506121359 58 0.0 0.0 0.00 0.00 0.00 89 1008.1
20260506120902 57 0.0 0.0 0.00 0.00 0.00 91 1008.5
20260506120405 55 0.0 0.0 0.00 0.00 0.00 96 1007.9